Location: Beadle
(51.4667°N, 109.0000°W)
Time: 03:59:05
(UTC+00:00)

Altair - Pass Details

Date: 03 June 2022
Orbit: 1501 x 1682 km, 47.2° (Epoch: 30 June)

Event Time Altitude Azimuth Distance (km) Brightness Sun altitude
Rises 01:54:11 0° 278° (W) 4,879 11.9 11.3°
Reaches altitude 10° 01:57:20 10° 275° (W) 3,909 11.5 10.9°
Maximum altitude 02:07:10 61° 199° (SSW) 1,864 8.1 9.5°
Drops below altitude 10° 02:17:05 10° 122° (ESE) 3,937 9.0 8.1°
Sets 02:20:16 0° 119° (ESE) 4,915 9.5 7.6°
